默认 日期 大小 文件数 浏览量 最新下载 xml
process磁力链接相关资源由用户搜索指令自动获取,结果来源于网络,本站不存储任何资料,亦不承担任何责任,请于24小时内删除,搜索到4545个磁力,显示前4000条数据,用时4ms。
    {"~Get Your Files Here !": {"Brushes": {"Clouds_3.sut": 790528, "clouds_xa.sut": 155648, "Clouds_xa_2.sut": 601088, "Cloud_Finger tip.sut": 155648, "ShreddedCloud_xa.sut": 602112, "clouds_2_colors_bubble.sut": 468992}, "clouds_1.jpg": 4131958, "clouds_2. ...
创建时间: 2021-08-18 11:50:23 大小:437.5 MB 文件数量:21 热度:7 最近下载:2025-02-02 11:41:03
    {"Zelda.psd": 177651532, "Zelda_xa.jpg": 11053866, "__Welcome__.txt": 2865, "__Bienvenue__.txt": 3271, "english_process.jpg": 6707895, "process_français.jpg": 7086193, "Trees_shadows_example.psd": 465233, "01-Zelda_rough(speed X 4).mp4": 71722818, "05- ...
创建时间: 2021-08-18 15:57:46 大小:637.67 MB 文件数量:41 热度:8 最近下载:2025-03-31 15:19:02
    {"Capstone_Engineering_Design_Project_Process_and_Reviews_Student_Engineering_Design_Workbook.pdf": 7958459}
创建时间: 2021-08-20 20:49:44 大小:7.59 MB 文件数量:1 热度:6 最近下载:2025-03-05 16:48:03
    {"Eula.txt": 7490, "procexp.chm": 72154, "procexp.exe": 2839416, "procexp64.exe": 1509768, "procexp64a.exe": 1496456}
创建时间: 2021-08-20 21:09:25 大小:5.65 MB 文件数量:5 热度:5 最近下载:2025-03-05 08:21:02
    {"pdfs.zip": 26067317, "Read Me.txt": 759, "3-Draft 2.mp4": 1023435207, "4-Draft 3.mp4": 271483702, "5-Draft 4.mp4": 567942865, "6-Draft 5.mp4": 515175278, "7-Draft 6.mp4": 398626665, "8-Draft 7.mp4": 602309763, "9-Draft 8.mp4": 415824360, "10-Draft 9.mp4 ...
创建时间: 2021-08-21 23:58:18 大小:7.35 GB 文件数量:27 热度:8 最近下载:2025-03-05 04:16:02
    {"~Get Your Files Here !": {"Bonus Resources.txt": 357, "AgelessIntensityHigh-IntensityWorkoutstoSlowtheAgingProcess.pdf": 17605798}, "Get Bonus Downloads Here.url": 183}
创建时间: 2021-08-22 18:44:27 大小:16.79 MB 文件数量:3 热度:7 最近下载:2025-03-11 04:39:01
    ... .mp4": 26670379, "3. Process mining in the Business Process Management (BPM) life ... . Introduction to levels of abstraction process maps.mp4": 15633436, "1. Introduction ... -sequence-column.csv": 7667736, "Healthcare process case description.html": 1199, "1 ...
创建时间: 2021-08-23 07:20:21 大小:1.21 GB 文件数量:97 热度:6 最近下载:2025-03-01 05:58:01
    {"Torrent downloaded from demonoid.pw.txt": 46, "Torrent downloaded from AhaShare.com.txt": 58, "Torrent Downloaded From ExtraTorrent.cc.txt": 352, "Bitsum Technologies Process Lasso Pro 7.9.3.5 Beta + Keygen.tgz": 2538602}
创建时间: 2021-08-24 23:00:56 大小:2.42 MB 文件数量:4 热度:5 最近下载:2025-03-25 22:46:05
    {"Ageless Intensity - High-Intensity Workouts to Slow the Aging Process.pdf": 17605798}
创建时间: 2021-08-25 14:57:24 大小:16.79 MB 文件数量:1 热度:5 最近下载:2025-03-12 10:40:02
    ... NDABLA Filing and FDA review process.mp4": 173963961, "5. Drug Registration ... NDABLA Filing and FDA review process-en_US.srt": 14082, "5. Drug ...
创建时间: 2021-08-25 16:35:42 大小:2.23 GB 文件数量:58 热度:8 最近下载:2025-01-09 16:41:06
    {"Sexual Justice Supporting Victims, Ensuring Due Process, and Resisting the Conservative Backlash.pdf": 2083013, "Sexual Justice Supporting Victims, Ensuring Due Process, and Resisting the Conservative Backlash.epub": 1699814}
创建时间: 2021-08-26 19:29:02 大小:3.61 MB 文件数量:2 热度:8 最近下载:2025-09-18 23:37:03
    {"tracked_by_h33t_com.txt": 185, "Torrent Downloaded From ExtraTorrent.com.txt": 339, "Process Lasso v6.0.1.11 Beta (32bit and 64bit) + Keygen---PMS.tgz": 2418898}
创建时间: 2021-08-26 21:58:47 大小:2.31 MB 文件数量:3 热度:9 最近下载:2025-01-31 00:53:03
    ... , "scan 10.jpg": 205752}, "Abortus - Process of Elimination.cue": 1134, "Abortus ... - Process of Elimination.log": 5708, "Abortus - Process of Elimination.flac ...
创建时间: 2021-08-27 09:58:13 大小:268.33 MB 文件数量:13 热度:5 最近下载:2025-03-08 09:48:02
    {"cover.jpg": 98837, "foo_dr.txt": 1039, "Folder.auCDtect.txt": 1596, "02. Agressor Bunx - Blender.flac": 35709043, "01. Agressor Bunx - Mental Process.flac": 34036748}
创建时间: 2021-08-27 11:04:41 大小:66.61 MB 文件数量:5 热度:5 最近下载:2025-03-05 04:48:03
    {"Foo D. Process Intensification and Integration for Sustainable Design 2021.pdf": 7155196}
创建时间: 2021-08-29 10:54:03 大小:6.82 MB 文件数量:1 热度:5 最近下载:2025-03-03 23:01:50
    ... 5253, "Background Apps and Process List.png": 9067, "Background Apps ... and Process List_thumb.jpg": 3058, "Background ... Apps and Process List_v1.2G.apk": 1642818, ... "background-apps-and-process-list-v-1.2-g_meta ...
创建时间: 2021-08-29 18:45:12 大小:1.6 MB 文件数量:6 热度:11 最近下载:2025-08-04 23:02:25
    {"Biswas S. Fundamentals of Process Safety Engineering 2021.pdf": 9023578}
创建时间: 2021-09-08 22:32:26 大小:8.61 MB 文件数量:1 热度:5 最近下载:2025-02-18 19:55:03
    {"~Get Your Files Here !": {"05 Arrays": {"001 Arrays.mp4": 57767501, "021 Functions.py": 5500, "001 Arrays.en.srt": 9712, "002 2D Arrays.mp4": 97320767, "004 Functions.mp4": 109759208, "023 Input Output.py": 6217, "002 2D Arrays.en.srt": 13025, "004 ...
创建时间: 2021-09-09 10:14:57 大小:2.78 GB 文件数量:134 热度:11 最近下载:2025-02-22 18:21:03
    ... A Guide To The Whole Process For ....pdf": 13835238, "Reasons Why ... A Guide To The Whole Process For....azw3": 5459768, "Reasons Why ... A Guide To The Whole Process For....epub": 5451904, "Reasons Why ... A Guide To The Whole Process For....mobi": 5724252}, "Get ...
创建时间: 2021-09-10 07:38:09 大小:29.06 MB 文件数量:6 热度:9 最近下载:2025-08-19 04:02:12
    {"9781803243115_Code.zip": 2522577, "0. Websites you may like": {"How you can help our Group!.txt": 204, "3. (FTUApps.com) Download Cracked Developers Applications For Free.url": 239, "0. (1Hack.Us) Premium Tutorials-Guides-Articles _ Community based Forum ...
创建时间: 2021-09-11 18:09:11 大小:3 GB 文件数量:34 热度:6 最近下载:2025-02-06 15:40:05